Miscellaneous Local Product
Issued by NWS North Platte, NE

Home | Current Version | Previous Version | Graphics & Text | Print | Product List | Glossary On
Versions: 1 2 3 4 5 6 7 8 9 10 11 12 13 14 15 16 17 18 19 20 21 22 23 24 25 26 27 28 29 30 31 32 33 34 35 36 37 38 39 40 41 42 43 44 45 46 47 48 49 50
000
AXUS43 KLBF 261010
MISLBF


WESTERN AND NORTH CENTRAL NEBRASKA HOURLY WEATHER ROUNDUP
NATIONAL WEATHER SERVICE NORTH PLATTE NE
500 AM CDT TUE MAY 26 2015

***STATIONS NOT REPORTING VARIABLES SUCH AS SKY/WEATHER OR
PRESSURE ARE PROVIDED BY THE NEBRASKA DEPARTMENT OF
ROADS...RAWS...AND APRS NETWORKS...AND ARE NOT UNDER
NATIONAL WEATHER SERVICE QUALITY CONTROL***

...OBSERVATIONS IN AND NEAR THE EASTERN PANHANDLE OF NEBRASKA...

CITY           SKY/WX    TMP DP  RH WIND       PRES   REMARKS
PINE RIDGE     CLOUDY    52  50  93 NE3       29.94S
CHADRON        CLOUDY    54  53  97 N5        29.95R
ALLIANCE       CLOUDY    51  50  96 W5        29.95R
SIDNEY         PTCLDY    43  42  97 NW7       29.97S
WHITECLAY        N/A     52  50  93 CALM        N/A
BIG SPRINGS      N/A     52  51  95 W3          N/A
$$

...OBSERVATIONS IN NORTH CENTRAL NEBRASKA...

CITY           SKY/WX    TMP DP  RH WIND       PRES   REMARKS
VALENTINE      CLOUDY    52  48  86 N7        29.91S
THEDFORD       CLOUDY    52  51  97 NW5       29.91R
AINSWORTH      CLOUDY    51  50  97 NW8       29.90S
O`NEILL        CLOUDY    55  55  97 N12       29.83S
ORD            CLOUDY    58  55  90 N8        29.81R
BROKEN BOW     CLOUDY    58  54  86 N16       29.84R
VALENTINE NWR    N/A     52  51  98 N6          N/A
SPRINGVIEW       N/A     51  49  93 CALM        N/A
HALSEY           N/A     53  53  99 NW6         N/A
ROSE             N/A     54  54  99 SW8         N/A
NEWPORT          N/A     54  53  97 W7          N/A
SARGENT          N/A     55  53  93 CALM        N/A
COMSTOCK         N/A     61  61  99 N12         N/A
EWING            N/A     56  55  96 N3G12       N/A
$$

...OBSERVATIONS IN SOUTHWEST NEBRASKA AND FAR NORTHEAST COLORADO...

CITY           SKY/WX    TMP DP  RH WIND       PRES   REMARKS
WRAY           FAIR      48  48 100 NW6       29.94S
IMPERIAL       MOCLDY    51  48  89 NW6       29.92S
OGALLALA       CLOUDY    52  51  97 CALM      29.93S
NORTH PLATTE   CLOUDY    52  51  97 W8        29.89S
MCCOOK         CLOUDY    52  50  93 NW8       29.88S
LEXINGTON      PTCLDY    55  54  95 NW7       29.84S
PAXTON           N/A     54  52  92 CALM        N/A
GOTHENBURG       N/A     55  51  85 NW7         N/A
CALLAWAY         N/A     56  55  96 NW7         N/A
$$

...NORTH PLATTE AREA...

CITY           SKY/WX    TMP DP  RH WIND       PRES   REMARKS
AIRPORT        CLOUDY    52  51  97 W8        29.89S
DOWNTOWN         N/A     52  49  90 NW3         N/A
$$

...SOME WEATHER OBSERVATIONS FROM AROUND THE REGION...

CITY           SKY/WX    TMP DP  RH WIND       PRES   REMARKS
DENVER         MOCLDY    47  43  86 SW6       30.00S
LARAMIE        CLOUDY    40  38  93 S3        30.06R
CHEYENNE       CLOUDY    44  38  79 NW6       30.02R
SCOTTSBLUFF    CLOUDY    47  46  97 W5        29.97R
RAPID CITY     CLOUDY    51  50  96 W5        29.96R
PIERRE         PTCLDY    50  48  93 N8        29.89F
WINNER         CLOUDY    53  49  86 NW6       29.89S
SIOUX FALLS    CLOUDY    55  52  89 N9        29.80F
OMAHA          LGT RAIN  62  59  90 S12       29.77F
GRAND ISLAND   CLOUDY    58  55  90 N10       29.77S
KANSAS CITY    RAIN      60  59  96 NW3       29.76F FOG
WICHITA        CLOUDY    58  58 100 CALM      29.83R
HAYS           MOCLDY    55  46  71 W9        29.85S
LIBERAL        CLEAR     54  48  82 N7        29.93R
GOODLAND       CLEAR     45  44  97 W3        29.94R
$$



USA.gov is the U.S. government's official web portal to all federal, state and local government web resources and services.